sat.trackr.live / text

‹ back to catalog

STARLINK-3072

NORAD 49153 · 2021-082Z

PAYLOAD ACTIVE UNKNOWN

§ Identity

Operator
Country
US
Launch date
2021-09-14
Launch site
AFWTR
Launch vehicle
Mass (kg)
RCS (m²)

Purposes: comms

External: N2YO · Heavens-Above · Gunter

§ Orbital elements

Epoch: 2026-05-25T03:23:14.657568Z

Period
96.11 min
Inclination
70.0005°
Eccentricity
0.0002895
Mean motion
14.98332175 rev/d
Perigee alt
570.0 km
Apogee alt
574.1 km
Semi-major
6,950.2 km
B*
3.9884e-5
RAAN
61.6948°
Arg perigee
269.1964°
Mean anomaly
90.8863°
Rev number
25,962

§ Raw data

STARLINK-30721 49153U 21082Z   26145.14114187  .00000383  00000+0  39884-4 0  99992 49153  70.0005  61.6948 0002895 269.1964  90.8863 14.98332175259622

JSON: /api/v1/satellites/49153 · /tle

For live sub-satellite position, see the globe view (requires WebGL).

§ Visibility from observer

Set your observer location to see the next 7 days of passes ≥ 10°. The values pass through the URL so the page stays shareable.

No JS? Fill the form by hand. The geolocation button needs JavaScript.